Hourly Data Report for September 17, 2021

WINNIPEG THE FORKS
MANITOBA
Current Station Operator: ECCC - MSC

49°53'18.008" N
97°07'46.007" W
230.00 m
5023262
71579
XWN

Download Data

Hourly Data (September 2021)
Hourly Data Report for September 17, 2021
TIME
LST
Temp Definition
°C
Dew Point Definition
°C
Rel Hum Definition
%
Precip. Amount Definition
mm

Wind Dir Definition
10's deg

Wind Spd Definition
km/h
Visibility Definition
km
Stn Press Definition
kPa
Hmdx Definition


Wind Chill Definition


Weather Definition


00:00 11.9 5.3 64 0.0 23 6   98.01     LegendNANA
01:00 11.1 4.3 63 0.0 24 7   98.07     LegendNANA
02:00 10.2 3.1 62 0.0 23 5   98.12     LegendNANA
03:00 9.7 2.2 60 0.0 23 11   98.20     LegendNANA
04:00 9.1 2.3 62 0.0 24 8   98.30     LegendNANA
05:00 8.6 2.4 65 0.0 25 8   98.39     LegendNANA
06:00 9.3 2.7 63 0.0 25 8   98.47     LegendNANA
07:00 8.8 2.5 65 0.0 25 8   98.56     LegendNANA
08:00 9.2 2.8 64 0.0 24 8   98.64     LegendNANA
09:00 10.6 3.3 61 0.0 26 9   98.74     LegendNANA
10:00 11.3 2.6 55 0.0 28 7   98.85     LegendNANA
11:00 12.4 3.3 54 0.0 26 9   98.94     LegendNANA
12:00 14.0 4.0 51 0.0 25 13   98.94     LegendNANA
13:00 14.4 4.1 50 0.0 28 9   98.99     LegendNANA
14:00 15.8 4.5 47 0.0 25 9   99.01     LegendNANA
15:00 15.9 4.0 45 0.0 27 6   99.01     LegendNANA
16:00 17.1 5.1 45 0.0 26 5   99.04     LegendNANA
17:00 16.8 3.6 41 0.0 27 6   99.05     LegendNANA
18:00 16.1 4.0 44 0.0 22 5   99.08     LegendNANA
19:00 14.3 5.8 56 0.0 21 3   99.08     LegendNANA
20:00 12.6 6.0 64 0.0 22 3   99.08     LegendNANA
21:00 12.1 5.9 66 0.0 20 2   99.11     LegendNANA
22:00 11.1 5.8 70 0.0 22 3   99.09     LegendNANA
23:00 9.9 5.4 74 0.0 20 2   99.07     LegendNANA

Notes on Data Quality.

Legend

  • E = Estimated
  • M = Missing
  • NA = Not Available*
  • [empty] = Indicates an unobserved value
Date modified: